Home > Weather > Majuro > Past weeks

Flag for Marshall Islands Past Weather in Majuro, Marshall Islands — Yesterday and Last 2 Weeks

Now
82 °F

Overcast.


Feels Like: 90 °F
Forecast: 83 / 86 °F
Wind: 8 mph from East

Location: Majuro Atoll

Current Time: Jul 25, 2016 at 12:52:31 AM

Latest Report: Jul 24, 2016 at 11:52 PM


Visibility: 15 mi

Pressure: 29.78 "Hg

Humidity: 84%

Dew Point: 77 °F

Location of MajuroLocation

Past Weather in Majuro — Graph

°F

Majuro Temperature Yesterday

Maximum temperature yesterday: 88 °F (at 9:56 AM)
Minimum temperature yesterday: 81 °F (at 9:54 PM)
Average temperature yesterday: 85 °F

High & Low Weather Summary for the Past Weeks

 TemperatureHumidityPressure
High90 °F (Jul 14, 12:50 PM)93% (Jul 16, 1:53 AM)29.92 "Hg (Jul 16, 1:53 AM)
Low78 °F (Jul 16, 4:51 AM)70% (Jul 21, 11:50 AM)29.72 "Hg (Jul 23, 3:52 PM)
Average84 °F80%29.81 "Hg
* Reported Jul 9 10:51 PM — Jul 24 10:50 PM, Majuro, Weather by CustomWeather, © 2016

Note: Actual official high and low records may vary slightly from our data, if they occured in-between our weather recording intervals... More about our weather records

Advertising

Majuro Weather History for the Previous 24 Hours

Scroll right to see more
 ConditionsComfort  
Time TempWeatherWind HumidityBarometerVisibility
10:50 PM
Sun, Jul 24
82 °FOvercast.13 mph85%29.80 "Hg15 mi
9:54 PM81 °FOvercast.12 mph87%29.82 "Hg15 mi
8:52 PM84 °FSprinkles. Overcast.15 mph83%29.79 "Hg8 mi
7:52 PM84 °FMore clouds than sun.13 mph82%29.78 "Hg15 mi
6:50 PM84 °FMore clouds than sun.10 mph78%29.76 "Hg15 mi
5:52 PM84 °FMore clouds than sun.15 mph81%29.75 "Hg15 mi
4:54 PM84 °FCloudy.20 mph80%29.74 "Hg15 mi
3:52 PM88 °FMore clouds than sun.10 mph72%29.73 "Hg15 mi
2:54 PM85 °FBroken clouds.9 mph79%29.75 "Hg15 mi
1:54 PM88 °FBroken clouds.9 mph75%29.75 "Hg15 mi
12:50 PM88 °FBroken clouds.9 mph76%29.78 "Hg15 mi
11:51 AM87 °FScattered clouds.10 mph77%29.78 "Hg15 mi
10:53 AM87 °FScattered clouds.9 mph76%29.80 "Hg15 mi
9:56 AM88 °FPartly sunny.8 mph73%29.80 "Hg15 mi
8:51 AM87 °FBroken clouds.9 mph75%29.80 "Hg15 mi
7:55 AM84 °FPartly sunny.10 mph82%29.78 "Hg15 mi
6:52 AM84 °FPartly cloudy.9 mph82%29.77 "Hg15 mi
5:59 AM84 °FPartly cloudy.9 mph82%29.76 "Hg15 mi
4:54 AM84 °FPartly cloudy.9 mph83%29.75 "Hg15 mi
3:51 AM83 °FPartly cloudy.10 mph81%29.75 "Hg15 mi
2:51 AM84 °FPartly cloudy.12 mph80%29.75 "Hg15 mi
1:51 AM83 °FPartly cloudy.10 mph81%29.78 "Hg15 mi
12:51 AM84 °FPartly cloudy.7 mph78%29.79 "Hg15 mi
Weather by CustomWeather, © 2016

See weather overviewHow to use our weather pages